• Join FlightAware (Why Join?)
  • Login
  • US Flag GB Flag 
11:30 EST


 

Airport Tracker/Info


-or-


 

Live Flight TrackerFlight Track Log ✈ DAL268 ✈ 23-Apr-2013 ✈ KATL - KJFK

Flight Track Log - Related Links

Times and Time Zones

All times are in EDT time to prevent confusion due to time zone crossing. See the DAL268 flight status page for this flight to view local times or setup timezone preferences in your user account.

Time Position Orientation Groundspeed Altitude Reporting Facility
EDT Latitude Longitude Course Direction KTS MPH feet Rate Location/Type
18:26 33.6333 -84.3667 101° East 197 227 2,600  Level Atlanta TRACON
18:27 33.6333 -84.2833 90° East 263 303 4,500 2,100 Climbing Atlanta TRACON
18:28 33.8550 -84.1420 73° East  Level Estimated
18:28 33.6333 -84.1833 90° East 284 327 6,800  Level Atlanta TRACON
18:29 33.9277 -84.0464 101° East  Level Estimated
18:29 33.6356 -84.0414 89° East 316 364 10,400  Level Atlanta Center
18:30 33.8516 -83.9548 135° Southeast  Level FlightAware Approximate
18:30 33.6439 -83.9292 85° East 326 375 11,500  Level Atlanta Center
18:31 33.9248 -83.8599 101° East  Level Estimated
18:31 33.6519 -83.7942 86° East 374 430 13,100  Level Atlanta Center
18:32 33.6600 -83.6519 86° East 411 473 15,200 2,100 Climbing Atlanta Center
18:33 33.7075 -83.5169 67° East 444 511 17,300 1,980 Climbing Atlanta Center
18:34 33.7633 -83.3842 63° Northeast 433 498 19,200 1,620 Climbing Atlanta Center
18:35 33.8189 -83.2461 64° Northeast 446 513 20,600 1,500 Climbing Atlanta Center
18:36 33.8764 -83.1081 63° Northeast 446 513 22,300 2,160 Climbing Atlanta Center
18:37 33.9294 -82.9697 65° Northeast 454 522 25,000 1,620 Climbing Atlanta Center
18:38 33.9867 -82.8339 63° Northeast 444 511 25,600 660 Climbing Atlanta Center
18:39 34.0458 -82.7100 60° Northeast 456 525 26,400 1,140 Climbing Atlanta Center
18:40 34.1172 -82.5733 58° Northeast 467 537 27,900 1,260 Climbing Atlanta Center
18:41 34.1844 -82.4217 62° Northeast 467 537 29,000 1,020 Climbing Atlanta Center
18:42 34.2492 -82.2797 61° Northeast 467 537 30,000 900 Climbing Atlanta Center
18:43 34.3158 -82.1400 60° Northeast 467 537 30,800 900 Climbing Atlanta Center
18:44 34.3806 -82.0000 61° Northeast 467 537 31,800 780 Climbing Atlanta Center
18:45 34.4469 -81.8600 60° Northeast 467 537 32,400 600 Climbing Atlanta Center
18:46 34.5111 -81.7222 60° Northeast 467 537 33,000 300 Climbing Atlanta Center
18:47 34.5711 -81.5842 62° Northeast 462 532 33,000  Level Atlanta Center
18:48 34.6253 -81.4767 58° Northeast 462 532 33,000  Level Atlanta Center
18:49 34.6950 -81.3231 61° Northeast 467 537 33,000  Level Atlanta Center
18:50 34.7586 -81.1844 61° Northeast 467 537 33,000  Level Atlanta Center
18:51 34.8222 -81.0456 61° Northeast 461 531 33,000  Level Atlanta Center
18:52 34.8856 -80.9092 60° Northeast 463 533 33,000  Level Atlanta Center
18:53 34.9486 -80.7672 62° Northeast 469 540 33,000  Level Atlanta Center
18:54 35.0175 -80.6175 61° Northeast 463 533 33,000  Level Atlanta Center
18:55 35.0803 -80.4753 62° Northeast 464 534 33,000  Level Atlanta Center
18:56 35.1431 -80.3381 61° Northeast 464 534 33,000  Level Atlanta Center
18:59 35.2922 -80.0072 61° Northeast 461 531 33,000  Level Washington Center
19:00 35.3556 -79.8681 61° Northeast 461 531 33,000  Level Washington Center
19:01 35.4169 -79.7286 62° Northeast 467 537 33,000  Level Washington Center
19:02 35.4781 -79.5864 62° Northeast 467 537 33,000  Level Washington Center
19:03 35.5408 -79.4492 61° Northeast 467 537 33,000  Level Washington Center
19:04 35.6019 -79.3064 62° Northeast 467 537 33,000  Level Washington Center
19:05 35.6644 -79.1661 61° Northeast 467 537 33,000  Level Washington Center
19:06 35.7272 -79.0231 62° Northeast 467 537 33,000  Level Washington Center
19:07 35.7875 -78.8850 62° Northeast 467 537 33,000  Level Washington Center
19:08 35.8475 -78.7414 63° Northeast 462 532 33,000  Level Washington Center
19:09 35.9161 -78.5875 61° Northeast 462 532 33,000  Level Washington Center
19:10 35.9761 -78.4461 62° Northeast 462 532 33,000  Level Washington Center
19:11 36.0336 -78.3044 63° Northeast 462 532 33,000  Level Washington Center
19:12 36.0950 -78.1625 62° Northeast 462 532 33,000 -60 Level Washington Center
19:13 36.1522 -78.0203 63° Northeast 462 532 32,900  Descending Washington Center
19:14 36.2114 -77.8781 63° Northeast 462 532 33,000  Climbing Washington Center
19:15 36.2706 -77.7356 63° Northeast 462 532 33,000  Level Washington Center
19:16 36.3292 -77.5953 63° Northeast 462 532 33,000  Level Washington Center
19:17 36.3836 -77.4572 64° Northeast 457 526 33,000  Level Washington Center
19:18 36.4419 -77.3167 63° Northeast 452 520 33,000  Level Washington Center
19:19 36.5003 -77.1758 63° Northeast 452 520 33,000  Level Washington Center
19:20 36.5606 -77.0400 61° Northeast 447 514 33,000  Level Washington Center
19:21 36.6450 -76.9433 43° Northeast 418 481 33,000  Level Washington Center
19:22 36.7358 -76.8489 40° Northeast 418 481 33,000  Level Washington Center
19:23 36.8242 -76.7594 39° Northeast 412 474 33,000  Level Washington Center
19:24 36.9128 -76.6647 41° Northeast 412 474 33,000  Level Washington Center
19:25 36.9947 -76.5800 40° Northeast 412 474 33,000  Level Washington Center
19:26 37.0853 -76.4875 39° Northeast 412 474 33,000  Level Washington Center
19:27 37.1714 -76.3947 41° Northeast 412 474 33,000  Level Washington Center
19:28 37.2617 -76.3017 39° Northeast 412 474 33,000  Level Washington Center
19:29 37.3519 -76.2083 39° Northeast 412 474 33,000 -180 Level Washington Center
19:30 37.4506 -76.1097 38° Northeast 412 474 32,700 -1,020 Descending Washington Center
19:31 37.5406 -76.0189 39° Northeast 412 474 31,000 -900 Descending Washington Center
19:32 37.6306 -75.9222 40° Northeast 412 474 31,000 -1,320 Level Washington Center
19:33 37.7203 -75.8308 39° Northeast 412 474 28,400 -2,700 Descending Washington Center
19:34 37.8081 -75.7364 40° Northeast 412 474 25,600 -1,740 Descending Washington Center
19:35 37.9061 -75.6522 34° Northeast 412 474 25,000 -300 Descending Washington Center
19:36 38.0042 -75.5839 29° Northeast 412 474 25,000  Level Washington Center
19:37 38.1022 -75.5072 32° Northeast 412 474 25,000  Level Washington Center
19:38 38.2064 -75.4383 27° Northeast 406 467 25,000  Level Washington Center
19:39 38.3083 -75.3694 28° Northeast 411 473 25,000  Level Washington Center
19:40 38.4022 -75.2950 32° Northeast 418 481 25,000  Level Washington Center
19:41 38.5042 -75.2228 29° Northeast 418 481 25,000  Level Washington Center
19:42 38.6061 -75.1506 29° Northeast 413 475 25,000  Level Washington Center
19:43 38.7119 -75.0808 27° Northeast 413 475 25,000  Level Washington Center
19:44 38.8158 -75.0028 30° Northeast 413 475 25,000  Level Washington Center
19:45 38.9197 -74.9300 29° Northeast 413 475 25,000  Level Washington Center
19:46 39.0236 -74.8569 29° Northeast 413 475 25,000  Level Washington Center
19:47 39.1250 -74.7728 33° Northeast 419 482 25,000 -60 Level Washington Center
19:48 39.2161 -74.6753 40° Northeast 419 482 24,900 -660 Descending Washington Center
19:49 39.3253 -74.5550 40° Northeast 427 491 23,700 -1,620 Descending New York Center
19:50 39.4139 -74.4603 40° Northeast 421 484 21,600 -2,280 Descending New York Center
19:51 39.4981 -74.3653 41° Northeast 409 471 19,200 -1,800 Descending New York Center
19:52 39.5844 -74.2700 40° Northeast 409 471 18,000 -1,200 Descending New York Center
19:53 39.6619 -74.1875 39° Northeast 403 464 16,900 -1,800 Descending New York Center
19:54 39.7522 -74.0867 41° Northeast 389 448 14,500 -2,400 Descending New York Center
19:55 39.8361 -73.9958 40° Northeast 384 442 12,100 -1,740 Descending New York Center
19:56 39.9233 -73.9297 30° Northeast 373 429 11,000 -600 Descending New York Center
19:57 39.9914 -73.8839 27° Northeast 329 379 11,000 -540 Level New York Center
19:58 40.0578 -73.8083 41° Northeast 285 328 10,000 -1,380 Descending New York Center
19:59 40.1036 -73.7342 51° Northeast 276 318 8,300 -2,160 Descending New York Center
20:00 40.1703 -73.7372 358° North 222 255 5,700 -2,580 Descending New York Center
20:00 40.1833 -73.7500 323° Northwest 259 298 5,100 -2,400 Descending New York TRACON
20:01 40.2500 -73.8000 330° Northwest 251 289 2,700 -1,560 Descending New York TRACON
20:02 40.3000 -73.8500 323° Northwest 247 284 2,000 -420 Descending New York TRACON
20:03 40.3369 -73.8942 318° Northwest 250 288 2,000  Level New York Center
20:04 40.3583 -73.9522 296° West 211 243 2,000  Level New York Center
20:05 40.3833 -73.9667 336° Northwest 150 173 2,000  Level New York TRACON
20:06 40.4167 -73.9333 37° Northeast 142 163 2,000  Level New York TRACON
20:07 40.4500 -73.9000 37° Northeast 140 161 2,000  Level New York TRACON
20:08 40.4833 -73.8833 21° North 140 161 2,000  Level New York TRACON
20:09 40.5167 -73.8500 37° Northeast 138 159 2,000  Level New York TRACON